軌道要素
Epoch 2011 Feb. 8.0 TT = JDT 2455600.5
T 2011 Feb. 3.29768 TT Rudenko
q 2.0599887 (2000.0) P Q
n 0.18769108 Peri. 244.86175 +0.91050994 +0.26206226
a 3.0211593 Node 98.60068 -0.15135035 +0.93105489
e 0.3181463 Incl. 18.87312 -0.38479178 +0.25389006
P 5.25
From 82 observations 2002 Jan. 9-2021 Oct. 7, mean residual 0".3.
|